{"data":{"norad_id":64489,"epoch":"2026-05-25T05:13:32.301408Z","epoch_age_seconds":66276,"freshness":"FRESH","line1":"1 64489U 25133T   26145.21773497  .00038302  00000+0  12982-2 0  9992","line2":"2 64489  53.1565 121.4421 0001144 103.5072 256.6056 15.30211164 52888","mean_motion":15.30211164,"eccentricity":0.0001144,"inclination_deg":53.1565,"raan_deg":121.4421,"arg_perigee_deg":103.5072,"mean_anomaly_deg":256.6056,"bstar":0.0012982,"rev_number":5288,"period_min":94.104659139711,"perigee_km":474.39771626692,"apogee_km":475.9657555937,"semimajor_km":6853.3187359303,"source":"CELESTRAK","updated_at":"2026-05-25T13:38:20.460676Z"}}